#datetime,building,power
2022-08-04T00:00:00,sdl,7.42
2022-08-04T00:01:00,sdl,7.48
2022-08-04T00:02:00,sdl,7.65
2022-08-04T00:03:00,sdl,7.39
2022-08-04T00:04:00,sdl,6.70
2022-08-04T00:05:00,sdl,6.81
2022-08-04T00:06:00,sdl,6.81
2022-08-04T00:07:00,sdl,6.92
2022-08-04T00:08:00,sdl,6.96
2022-08-04T00:09:00,sdl,6.99
2022-08-04T00:10:00,sdl,10.01
2022-08-04T00:11:00,sdl,12.49
2022-08-04T00:12:00,sdl,12.10
2022-08-04T00:13:00,sdl,11.69
2022-08-04T00:14:00,sdl,12.02
2022-08-04T00:15:00,sdl,9.66
2022-08-04T00:16:00,sdl,10.25
2022-08-04T00:17:00,sdl,10.30
2022-08-04T00:18:00,sdl,10.36
2022-08-04T00:19:00,sdl,10.94
2022-08-04T00:20:00,sdl,10.15
2022-08-04T00:21:00,sdl,8.97
2022-08-04T00:22:00,sdl,6.05
2022-08-04T00:23:00,sdl,6.01
2022-08-04T00:24:00,sdl,6.05
2022-08-04T00:25:00,sdl,6.02
2022-08-04T00:26:00,sdl,6.13
2022-08-04T00:27:00,sdl,5.96
2022-08-04T00:28:00,sdl,6.00
2022-08-04T00:29:00,sdl,6.13
2022-08-04T00:30:00,sdl,6.05
2022-08-04T00:31:00,sdl,6.05
2022-08-04T00:32:00,sdl,6.45
2022-08-04T00:33:00,sdl,7.85
2022-08-04T00:34:00,sdl,8.07
2022-08-04T00:35:00,sdl,7.81
2022-08-04T00:36:00,sdl,7.80
2022-08-04T00:37:00,sdl,8.06
2022-08-04T00:38:00,sdl,5.72
2022-08-04T00:39:00,sdl,5.96
2022-08-04T00:40:00,sdl,5.98
2022-08-04T00:41:00,sdl,6.05
2022-08-04T00:42:00,sdl,6.46
2022-08-04T00:43:00,sdl,6.12
2022-08-04T00:44:00,sdl,4.92
2022-08-04T00:45:00,sdl,4.46
2022-08-04T00:46:00,sdl,2.77
2022-08-04T00:47:00,sdl,2.77
2022-08-04T00:48:00,sdl,2.90
2022-08-04T00:49:00,sdl,3.28
2022-08-04T00:50:00,sdl,3.48
2022-08-04T00:51:00,sdl,5.28
2022-08-04T00:52:00,sdl,5.22
2022-08-04T00:53:00,sdl,4.94
2022-08-04T00:54:00,sdl,5.17
2022-08-04T00:55:00,sdl,4.86
2022-08-04T00:56:00,sdl,3.20
2022-08-04T00:57:00,sdl,3.23
2022-08-04T00:58:00,sdl,3.18
2022-08-04T00:59:00,sdl,3.25
2022-08-04T01:00:00,sdl,3.59
2022-08-04T01:01:00,sdl,3.23
2022-08-04T01:02:00,sdl,3.09
2022-08-04T01:03:00,sdl,5.03
2022-08-04T01:04:00,sdl,5.38
2022-08-04T01:05:00,sdl,6.08
2022-08-04T01:06:00,sdl,5.36
2022-08-04T01:07:00,sdl,5.42
2022-08-04T01:08:00,sdl,5.37
2022-08-04T01:09:00,sdl,7.15
2022-08-04T01:10:00,sdl,6.87
2022-08-04T01:11:00,sdl,7.33
2022-08-04T01:12:00,sdl,7.31
2022-08-04T01:13:00,sdl,7.05
2022-08-04T01:14:00,sdl,5.35
2022-08-04T01:15:00,sdl,5.32
2022-08-04T01:16:00,sdl,5.36
2022-08-04T01:17:00,sdl,5.25
2022-08-04T01:18:00,sdl,5.28
2022-08-04T01:19:00,sdl,5.24
2022-08-04T01:20:00,sdl,3.04
2022-08-04T01:21:00,sdl,3.01
2022-08-04T01:22:00,sdl,3.01
2022-08-04T01:23:00,sdl,3.13
2022-08-04T01:24:00,sdl,3.12
2022-08-04T01:25:00,sdl,3.08
2022-08-04T01:26:00,sdl,3.01
2022-08-04T01:27:00,sdl,4.88
2022-08-04T01:28:00,sdl,4.43
2022-08-04T01:29:00,sdl,4.41
2022-08-04T01:30:00,sdl,4.68
2022-08-04T01:31:00,sdl,4.80
2022-08-04T01:32:00,sdl,4.80
2022-08-04T01:33:00,sdl,2.99
2022-08-04T01:34:00,sdl,3.08
2022-08-04T01:35:00,sdl,3.12
2022-08-04T01:36:00,sdl,3.07
2022-08-04T01:37:00,sdl,1.71
2022-08-04T01:38:00,sdl,2.84
2022-08-04T01:39:00,sdl,2.82
2022-08-04T01:40:00,sdl,2.89
2022-08-04T01:41:00,sdl,3.24
2022-08-04T01:42:00,sdl,3.28
2022-08-04T01:43:00,sdl,2.88
2022-08-04T01:44:00,sdl,2.75
2022-08-04T01:45:00,sdl,4.59
2022-08-04T01:46:00,sdl,4.40
2022-08-04T01:47:00,sdl,4.65
2022-08-04T01:48:00,sdl,4.65
2022-08-04T01:49:00,sdl,4.89
2022-08-04T01:50:00,sdl,3.72
2022-08-04T01:51:00,sdl,3.06
2022-08-04T01:52:00,sdl,3.03
2022-08-04T01:53:00,sdl,2.73
2022-08-04T01:54:00,sdl,3.04
2022-08-04T01:55:00,sdl,3.04
2022-08-04T01:56:00,sdl,3.04
2022-08-04T01:57:00,sdl,2.99
2022-08-04T01:58:00,sdl,3.09
2022-08-04T01:59:00,sdl,3.08
2022-08-04T02:00:00,sdl,3.06
2022-08-04T02:01:00,sdl,3.08
2022-08-04T02:02:00,sdl,2.66
2022-08-04T02:03:00,sdl,6.73
2022-08-04T02:04:00,sdl,6.64
2022-08-04T02:05:00,sdl,6.62
2022-08-04T02:06:00,sdl,6.54
2022-08-04T02:07:00,sdl,6.88
2022-08-04T02:08:00,sdl,5.26
2022-08-04T02:09:00,sdl,4.97
2022-08-04T02:10:00,sdl,5.25
2022-08-04T02:11:00,sdl,5.44
2022-08-04T02:12:00,sdl,5.30
2022-08-04T02:13:00,sdl,4.67
2022-08-04T02:14:00,sdl,4.71
2022-08-04T02:15:00,sdl,4.56
2022-08-04T02:16:00,sdl,4.99
2022-08-04T02:17:00,sdl,3.24
2022-08-04T02:18:00,sdl,3.15
2022-08-04T02:19:00,sdl,3.08
2022-08-04T02:20:00,sdl,4.65
2022-08-04T02:21:00,sdl,4.86
2022-08-04T02:22:00,sdl,5.15
2022-08-04T02:23:00,sdl,5.05
2022-08-04T02:24:00,sdl,5.07
2022-08-04T02:25:00,sdl,4.99
2022-08-04T02:26:00,sdl,3.25
2022-08-04T02:27:00,sdl,3.25
2022-08-04T02:28:00,sdl,3.28
2022-08-04T02:29:00,sdl,3.15
2022-08-04T02:30:00,sdl,3.17
2022-08-04T02:31:00,sdl,3.15
2022-08-04T02:32:00,sdl,3.13
2022-08-04T02:33:00,sdl,3.24
2022-08-04T02:34:00,sdl,5.46
2022-08-04T02:35:00,sdl,5.11
2022-08-04T02:36:00,sdl,5.00
2022-08-04T02:37:00,sdl,5.32
2022-08-04T02:38:00,sdl,5.74
2022-08-04T02:39:00,sdl,7.22
2022-08-04T02:40:00,sdl,7.18
2022-08-04T02:41:00,sdl,7.73
2022-08-04T02:42:00,sdl,7.35
2022-08-04T02:43:00,sdl,7.25
2022-08-04T02:44:00,sdl,5.31
2022-08-04T02:45:00,sdl,5.28
2022-08-04T02:46:00,sdl,5.30
2022-08-04T02:47:00,sdl,2.94
2022-08-04T02:48:00,sdl,2.97
2022-08-04T02:49:00,sdl,2.88
2022-08-04T02:50:00,sdl,2.90
2022-08-04T02:51:00,sdl,2.97
2022-08-04T02:52:00,sdl,3.29
2022-08-04T02:53:00,sdl,2.94
2022-08-04T02:54:00,sdl,2.98
2022-08-04T02:55:00,sdl,2.61
2022-08-04T02:56:00,sdl,4.72
2022-08-04T02:57:00,sdl,4.81
2022-08-04T02:58:00,sdl,4.75
2022-08-04T02:59:00,sdl,4.74
2022-08-04T03:00:00,sdl,4.96
2022-08-04T03:01:00,sdl,5.29
2022-08-04T03:02:00,sdl,5.41
2022-08-04T03:03:00,sdl,5.47
2022-08-04T03:04:00,sdl,5.23
2022-08-04T03:05:00,sdl,5.38
2022-08-04T03:06:00,sdl,10.51
2022-08-04T03:07:00,sdl,10.34
2022-08-04T03:08:00,sdl,10.47
2022-08-04T03:09:00,sdl,10.55
2022-08-04T03:10:00,sdl,10.92
2022-08-04T03:11:00,sdl,10.71
2022-08-04T03:12:00,sdl,10.37
2022-08-04T03:13:00,sdl,11.19
2022-08-04T03:14:00,sdl,11.24
2022-08-04T03:15:00,sdl,11.68
2022-08-04T03:16:00,sdl,11.74
2022-08-04T03:17:00,sdl,11.89
2022-08-04T03:18:00,sdl,11.95
2022-08-04T03:19:00,sdl,10.88
2022-08-04T03:20:00,sdl,11.15
2022-08-04T03:21:00,sdl,10.89
2022-08-04T03:22:00,sdl,10.24
2022-08-04T03:23:00,sdl,10.80
2022-08-04T03:24:00,sdl,10.21
2022-08-04T03:25:00,sdl,10.09
2022-08-04T03:26:00,sdl,10.12
2022-08-04T03:27:00,sdl,10.04
2022-08-04T03:28:00,sdl,10.16
2022-08-04T03:29:00,sdl,10.15
2022-08-04T03:30:00,sdl,13.38
2022-08-04T03:31:00,sdl,13.62
2022-08-04T03:32:00,sdl,12.97
2022-08-04T03:33:00,sdl,13.34
2022-08-04T03:34:00,sdl,13.23
2022-08-04T03:35:00,sdl,13.32
2022-08-04T03:36:00,sdl,12.59
2022-08-04T03:37:00,sdl,12.61
2022-08-04T03:38:00,sdl,12.53
2022-08-04T03:39:00,sdl,12.66
2022-08-04T03:40:00,sdl,13.19
2022-08-04T03:41:00,sdl,12.81
2022-08-04T03:42:00,sdl,12.15
2022-08-04T03:43:00,sdl,12.36
2022-08-04T03:44:00,sdl,12.35
2022-08-04T03:45:00,sdl,12.41
2022-08-04T03:46:00,sdl,10.46
2022-08-04T03:47:00,sdl,11.13
2022-08-04T03:48:00,sdl,11.23
2022-08-04T03:49:00,sdl,11.15
2022-08-04T03:50:00,sdl,11.29
2022-08-04T03:51:00,sdl,11.43
2022-08-04T03:52:00,sdl,11.34
2022-08-04T03:53:00,sdl,10.41
2022-08-04T03:54:00,sdl,10.34
2022-08-04T03:55:00,sdl,10.19
2022-08-04T03:56:00,sdl,9.96
2022-08-04T03:57:00,sdl,9.91
2022-08-04T03:58:00,sdl,9.83
2022-08-04T03:59:00,sdl,10.10
2022-08-04T04:00:00,sdl,10.04
2022-08-04T04:01:00,sdl,9.50
2022-08-04T04:02:00,sdl,10.16
2022-08-04T04:03:00,sdl,10.07
2022-08-04T04:04:00,sdl,10.37
2022-08-04T04:05:00,sdl,11.13
2022-08-04T04:06:00,sdl,10.80
2022-08-04T04:07:00,sdl,11.15
2022-08-04T04:08:00,sdl,10.64
2022-08-04T04:09:00,sdl,11.07
2022-08-04T04:10:00,sdl,13.10
2022-08-04T04:11:00,sdl,12.55
2022-08-04T04:12:00,sdl,12.58
2022-08-04T04:13:00,sdl,12.44
2022-08-04T04:14:00,sdl,12.17
2022-08-04T04:15:00,sdl,12.42
2022-08-04T04:16:00,sdl,12.32
2022-08-04T04:17:00,sdl,12.13
2022-08-04T04:18:00,sdl,12.26
2022-08-04T04:19:00,sdl,12.14
2022-08-04T04:20:00,sdl,9.89
2022-08-04T04:21:00,sdl,10.10
2022-08-04T04:22:00,sdl,11.06
2022-08-04T04:23:00,sdl,11.03
2022-08-04T04:24:00,sdl,11.17
2022-08-04T04:25:00,sdl,10.74
2022-08-04T04:26:00,sdl,10.81
2022-08-04T04:27:00,sdl,10.17
2022-08-04T04:28:00,sdl,10.35
2022-08-04T04:29:00,sdl,10.56
2022-08-04T04:30:00,sdl,10.62
2022-08-04T04:31:00,sdl,10.83
2022-08-04T04:32:00,sdl,10.29
2022-08-04T04:33:00,sdl,10.46
2022-08-04T04:34:00,sdl,10.81
2022-08-04T04:35:00,sdl,10.70
2022-08-04T04:36:00,sdl,10.16
2022-08-04T04:37:00,sdl,10.20
2022-08-04T04:38:00,sdl,10.42
2022-08-04T04:39:00,sdl,11.08
2022-08-04T04:40:00,sdl,11.60
2022-08-04T04:41:00,sdl,11.90
2022-08-04T04:42:00,sdl,12.05
2022-08-04T04:43:00,sdl,11.53
2022-08-04T04:44:00,sdl,11.44
2022-08-04T04:45:00,sdl,10.62
2022-08-04T04:46:00,sdl,13.14
2022-08-04T04:47:00,sdl,12.67
2022-08-04T04:48:00,sdl,12.86
2022-08-04T04:49:00,sdl,12.86
2022-08-04T04:50:00,sdl,12.99
2022-08-04T04:51:00,sdl,12.89
2022-08-04T04:52:00,sdl,13.03
2022-08-04T04:53:00,sdl,12.47
2022-08-04T04:54:00,sdl,12.54
2022-08-04T04:55:00,sdl,13.46
2022-08-04T04:56:00,sdl,12.93
2022-08-04T04:57:00,sdl,13.18
2022-08-04T04:58:00,sdl,13.87
2022-08-04T04:59:00,sdl,13.65
2022-08-04T05:00:00,sdl,13.77
2022-08-04T05:01:00,sdl,13.69
2022-08-04T05:02:00,sdl,11.90
2022-08-04T05:03:00,sdl,11.21
2022-08-04T05:04:00,sdl,11.15
2022-08-04T05:05:00,sdl,10.62
2022-08-04T05:06:00,sdl,10.59
2022-08-04T05:07:00,sdl,10.56
2022-08-04T05:08:00,sdl,10.18
2022-08-04T05:09:00,sdl,10.41
2022-08-04T05:10:00,sdl,10.62
2022-08-04T05:11:00,sdl,10.53
2022-08-04T05:12:00,sdl,10.65
2022-08-04T05:13:00,sdl,10.46
2022-08-04T05:14:00,sdl,10.91
2022-08-04T05:15:00,sdl,10.76
2022-08-04T05:16:00,sdl,11.72
2022-08-04T05:17:00,sdl,11.82
2022-08-04T05:18:00,sdl,11.61
2022-08-04T05:19:00,sdl,11.53
2022-08-04T05:20:00,sdl,11.61
2022-08-04T05:21:00,sdl,10.50
2022-08-04T05:22:00,sdl,10.85
2022-08-04T05:23:00,sdl,10.12
2022-08-04T05:24:00,sdl,10.49
2022-08-04T05:25:00,sdl,10.63
2022-08-04T05:26:00,sdl,10.51
2022-08-04T05:27:00,sdl,10.39
2022-08-04T05:28:00,sdl,10.81
2022-08-04T05:29:00,sdl,10.56
2022-08-04T05:30:00,sdl,10.47
2022-08-04T05:31:00,sdl,10.38
2022-08-04T05:32:00,sdl,10.57
2022-08-04T05:33:00,sdl,10.51
2022-08-04T05:34:00,sdl,10.08
2022-08-04T05:35:00,sdl,10.78
2022-08-04T05:36:00,sdl,10.87
2022-08-04T05:37:00,sdl,10.96
2022-08-04T05:38:00,sdl,10.86
2022-08-04T05:39:00,sdl,13.10
2022-08-04T05:40:00,sdl,12.01
2022-08-04T05:41:00,sdl,13.41
2022-08-04T05:42:00,sdl,14.94
2022-08-04T05:43:00,sdl,15.36
2022-08-04T05:44:00,sdl,15.35
2022-08-04T05:45:00,sdl,16.17
2022-08-04T05:46:00,sdl,17.97
2022-08-04T05:47:00,sdl,18.30
2022-08-04T05:48:00,sdl,18.71
2022-08-04T05:49:00,sdl,14.26
2022-08-04T05:50:00,sdl,14.08
2022-08-04T05:51:00,sdl,13.48
2022-08-04T05:52:00,sdl,13.65
2022-08-04T05:53:00,sdl,17.56
2022-08-04T05:54:00,sdl,17.36
2022-08-04T05:55:00,sdl,17.64
2022-08-04T05:56:00,sdl,17.52
2022-08-04T05:57:00,sdl,17.53
2022-08-04T05:58:00,sdl,17.07
2022-08-04T05:59:00,sdl,16.96
2022-08-04T06:00:00,sdl,17.60
2022-08-04T06:01:00,sdl,17.18
2022-08-04T06:02:00,sdl,17.05
2022-08-04T06:03:00,sdl,16.88
2022-08-04T06:04:00,sdl,16.82
2022-08-04T06:05:00,sdl,16.56
2022-08-04T06:06:00,sdl,16.66
2022-08-04T06:07:00,sdl,19.14
2022-08-04T06:08:00,sdl,19.29
2022-08-04T06:09:00,sdl,18.89
2022-08-04T06:10:00,sdl,19.18
2022-08-04T06:11:00,sdl,19.10
2022-08-04T06:12:00,sdl,20.16
2022-08-04T06:13:00,sdl,19.99
2022-08-04T06:14:00,sdl,20.00
2022-08-04T06:15:00,sdl,20.04
2022-08-04T06:16:00,sdl,20.08
2022-08-04T06:17:00,sdl,20.13
2022-08-04T06:18:00,sdl,19.00
2022-08-04T06:19:00,sdl,19.08
2022-08-04T06:20:00,sdl,18.48
2022-08-04T06:21:00,sdl,18.36
2022-08-04T06:22:00,sdl,18.85
2022-08-04T06:23:00,sdl,16.76
2022-08-04T06:24:00,sdl,17.25
2022-08-04T06:25:00,sdl,17.21
2022-08-04T06:26:00,sdl,17.46
2022-08-04T06:27:00,sdl,16.94
2022-08-04T06:28:00,sdl,17.71
2022-08-04T06:29:00,sdl,16.89
2022-08-04T06:30:00,sdl,16.95
2022-08-04T06:31:00,sdl,17.75
2022-08-04T06:32:00,sdl,18.39
2022-08-04T06:33:00,sdl,17.55
2022-08-04T06:34:00,sdl,17.88
2022-08-04T06:35:00,sdl,18.29
2022-08-04T06:36:00,sdl,17.88
2022-08-04T06:37:00,sdl,16.98
2022-08-04T06:38:00,sdl,17.85
2022-08-04T06:39:00,sdl,17.24
2022-08-04T06:40:00,sdl,17.25
2022-08-04T06:41:00,sdl,17.19
2022-08-04T06:42:00,sdl,17.67
2022-08-04T06:43:00,sdl,17.53
2022-08-04T06:44:00,sdl,17.35
2022-08-04T06:45:00,sdl,17.40
2022-08-04T06:46:00,sdl,17.31
2022-08-04T06:47:00,sdl,17.61
2022-08-04T06:48:00,sdl,17.43
2022-08-04T06:49:00,sdl,18.53
2022-08-04T06:50:00,sdl,17.97
2022-08-04T06:51:00,sdl,18.33
2022-08-04T06:52:00,sdl,18.24
2022-08-04T06:53:00,sdl,18.74
2022-08-04T06:54:00,sdl,18.55
2022-08-04T06:55:00,sdl,17.24
2022-08-04T06:56:00,sdl,17.22
2022-08-04T06:57:00,sdl,17.40
2022-08-04T06:58:00,sdl,17.50
2022-08-04T06:59:00,sdl,17.75
2022-08-04T07:00:00,sdl,17.56
2022-08-04T07:01:00,sdl,18.07
2022-08-04T07:02:00,sdl,20.66
2022-08-04T07:03:00,sdl,20.58
2022-08-04T07:04:00,sdl,20.74
2022-08-04T07:05:00,sdl,18.21
2022-08-04T07:06:00,sdl,18.46
2022-08-04T07:07:00,sdl,18.39
2022-08-04T07:08:00,sdl,21.04
2022-08-04T07:09:00,sdl,23.67
2022-08-04T07:10:00,sdl,23.83
2022-08-04T07:11:00,sdl,22.27
2022-08-04T07:12:00,sdl,21.93
2022-08-04T07:13:00,sdl,22.18
2022-08-04T07:14:00,sdl,21.09
2022-08-04T07:15:00,sdl,21.12
2022-08-04T07:16:00,sdl,21.15
2022-08-04T07:17:00,sdl,21.13
2022-08-04T07:18:00,sdl,21.16
2022-08-04T07:19:00,sdl,20.73
2022-08-04T07:20:00,sdl,20.47
2022-08-04T07:21:00,sdl,21.10
2022-08-04T07:22:00,sdl,20.59
2022-08-04T07:23:00,sdl,21.51
2022-08-04T07:24:00,sdl,18.96
2022-08-04T07:25:00,sdl,19.49
2022-08-04T07:26:00,sdl,19.45
2022-08-04T07:27:00,sdl,20.06
2022-08-04T07:28:00,sdl,19.73
2022-08-04T07:29:00,sdl,19.44
2022-08-04T07:30:00,sdl,19.57
2022-08-04T07:31:00,sdl,19.82
2022-08-04T07:32:00,sdl,18.91
2022-08-04T07:33:00,sdl,19.00
2022-08-04T07:34:00,sdl,19.07
2022-08-04T07:35:00,sdl,19.41
2022-08-04T07:36:00,sdl,19.51
2022-08-04T07:37:00,sdl,19.68
2022-08-04T07:38:00,sdl,19.84
2022-08-04T07:39:00,sdl,20.87
2022-08-04T07:40:00,sdl,22.21
2022-08-04T07:41:00,sdl,21.99
2022-08-04T07:42:00,sdl,23.89
2022-08-04T07:43:00,sdl,24.20
2022-08-04T07:44:00,sdl,24.32
2022-08-04T07:45:00,sdl,24.19
2022-08-04T07:46:00,sdl,24.21
2022-08-04T07:47:00,sdl,24.14
2022-08-04T07:48:00,sdl,23.48
2022-08-04T07:49:00,sdl,23.55
2022-08-04T07:50:00,sdl,26.23
2022-08-04T07:51:00,sdl,23.32
2022-08-04T07:52:00,sdl,23.05
2022-08-04T07:53:00,sdl,22.34
2022-08-04T07:54:00,sdl,19.57
2022-08-04T07:55:00,sdl,19.69
2022-08-04T07:56:00,sdl,19.86
2022-08-04T07:57:00,sdl,19.75
2022-08-04T07:58:00,sdl,19.73
2022-08-04T07:59:00,sdl,19.76
2022-08-04T08:00:00,sdl,20.76
2022-08-04T08:01:00,sdl,20.31
2022-08-04T08:02:00,sdl,20.24
2022-08-04T08:03:00,sdl,20.00
2022-08-04T08:04:00,sdl,21.01
2022-08-04T08:05:00,sdl,20.95
2022-08-04T08:06:00,sdl,20.82
2022-08-04T08:07:00,sdl,19.95
2022-08-04T08:08:00,sdl,19.55
2022-08-04T08:09:00,sdl,20.16
2022-08-04T08:10:00,sdl,20.14
2022-08-04T08:11:00,sdl,20.37
2022-08-04T08:12:00,sdl,20.46
2022-08-04T08:13:00,sdl,20.66
2022-08-04T08:14:00,sdl,20.37
2022-08-04T08:15:00,sdl,20.32
2022-08-04T08:16:00,sdl,20.45
2022-08-04T08:17:00,sdl,22.36
2022-08-04T08:18:00,sdl,22.15
2022-08-04T08:19:00,sdl,21.70
2022-08-04T08:20:00,sdl,21.37
2022-08-04T08:21:00,sdl,22.40
2022-08-04T08:22:00,sdl,21.64
2022-08-04T08:23:00,sdl,20.83
2022-08-04T08:24:00,sdl,22.75
2022-08-04T08:25:00,sdl,22.89
2022-08-04T08:26:00,sdl,22.77
2022-08-04T08:27:00,sdl,22.91
2022-08-04T08:28:00,sdl,22.99
2022-08-04T08:29:00,sdl,23.03
2022-08-04T08:30:00,sdl,23.16
2022-08-04T08:31:00,sdl,23.11
2022-08-04T08:32:00,sdl,23.93
2022-08-04T08:33:00,sdl,23.70
2022-08-04T08:34:00,sdl,23.93
2022-08-04T08:35:00,sdl,23.73
2022-08-04T08:36:00,sdl,24.64
2022-08-04T08:37:00,sdl,24.36
2022-08-04T08:38:00,sdl,24.44
2022-08-04T08:39:00,sdl,24.66
2022-08-04T08:40:00,sdl,23.18
2022-08-04T08:41:00,sdl,22.53
2022-08-04T08:42:00,sdl,20.43
2022-08-04T08:43:00,sdl,20.39
2022-08-04T08:44:00,sdl,21.17
2022-08-04T08:45:00,sdl,20.90
2022-08-04T08:46:00,sdl,21.40
2022-08-04T08:47:00,sdl,20.60
2022-08-04T08:48:00,sdl,21.39
2022-08-04T08:49:00,sdl,21.57
2022-08-04T08:50:00,sdl,21.61
2022-08-04T08:51:00,sdl,21.35
2022-08-04T08:52:00,sdl,22.15
2022-08-04T08:53:00,sdl,21.96
2022-08-04T08:54:00,sdl,20.41
2022-08-04T08:55:00,sdl,21.82
2022-08-04T08:56:00,sdl,20.98
2022-08-04T08:57:00,sdl,21.08
2022-08-04T08:58:00,sdl,20.64
2022-08-04T08:59:00,sdl,20.55
2022-08-04T09:00:00,sdl,20.56
2022-08-04T09:01:00,sdl,20.44
2022-08-04T09:02:00,sdl,20.63
2022-08-04T09:03:00,sdl,20.46
2022-08-04T09:04:00,sdl,21.75
2022-08-04T09:05:00,sdl,22.75
2022-08-04T09:06:00,sdl,21.76
2022-08-04T09:07:00,sdl,22.28
2022-08-04T09:08:00,sdl,24.65
2022-08-04T09:09:00,sdl,24.06
2022-08-04T09:10:00,sdl,22.66
2022-08-04T09:11:00,sdl,21.66
2022-08-04T09:12:00,sdl,21.36
2022-08-04T09:13:00,sdl,21.18
2022-08-04T09:14:00,sdl,21.11
2022-08-04T09:15:00,sdl,20.82
2022-08-04T09:16:00,sdl,20.76
2022-08-04T09:17:00,sdl,20.82
2022-08-04T09:18:00,sdl,23.78
2022-08-04T09:19:00,sdl,23.76
2022-08-04T09:20:00,sdl,23.42
2022-08-04T09:21:00,sdl,23.45
2022-08-04T09:22:00,sdl,23.36
2022-08-04T09:23:00,sdl,23.16
2022-08-04T09:24:00,sdl,23.25
2022-08-04T09:25:00,sdl,22.80
2022-08-04T09:26:00,sdl,21.09
2022-08-04T09:27:00,sdl,21.33
2022-08-04T09:28:00,sdl,22.97
2022-08-04T09:29:00,sdl,22.51
2022-08-04T09:30:00,sdl,22.60
2022-08-04T09:31:00,sdl,22.97
2022-08-04T09:32:00,sdl,22.89
2022-08-04T09:33:00,sdl,23.17
2022-08-04T09:34:00,sdl,21.17
2022-08-04T09:35:00,sdl,19.63
2022-08-04T09:36:00,sdl,19.69
2022-08-04T09:37:00,sdl,19.43
2022-08-04T09:38:00,sdl,19.37
2022-08-04T09:39:00,sdl,20.53
2022-08-04T09:40:00,sdl,20.99
2022-08-04T09:41:00,sdl,21.02
2022-08-04T09:42:00,sdl,20.35
2022-08-04T09:43:00,sdl,20.41
2022-08-04T09:44:00,sdl,20.43
2022-08-04T09:45:00,sdl,20.40
2022-08-04T09:46:00,sdl,20.49
2022-08-04T09:47:00,sdl,20.31
2022-08-04T09:48:00,sdl,20.00
2022-08-04T09:49:00,sdl,17.73
2022-08-04T09:50:00,sdl,18.84
2022-08-04T09:51:00,sdl,19.10
2022-08-04T09:52:00,sdl,19.65
2022-08-04T09:53:00,sdl,19.04
2022-08-04T09:54:00,sdl,19.05
2022-08-04T09:55:00,sdl,19.41
2022-08-04T09:56:00,sdl,19.71
2022-08-04T09:57:00,sdl,18.94
2022-08-04T09:58:00,sdl,17.85
2022-08-04T09:59:00,sdl,18.62
2022-08-04T10:00:00,sdl,18.33
2022-08-04T10:01:00,sdl,18.20
2022-08-04T10:02:00,sdl,18.45
2022-08-04T10:03:00,sdl,19.46
2022-08-04T10:04:00,sdl,17.64
2022-08-04T10:05:00,sdl,16.71
2022-08-04T10:06:00,sdl,17.02
2022-08-04T10:07:00,sdl,17.65
2022-08-04T10:08:00,sdl,17.39
2022-08-04T10:09:00,sdl,16.80
2022-08-04T10:10:00,sdl,17.87
2022-08-04T10:11:00,sdl,17.71
2022-08-04T10:12:00,sdl,18.03
2022-08-04T10:13:00,sdl,17.36
2022-08-04T10:14:00,sdl,17.51
2022-08-04T10:15:00,sdl,17.60
2022-08-04T10:16:00,sdl,17.34
2022-08-04T10:17:00,sdl,17.76
2022-08-04T10:18:00,sdl,17.84
2022-08-04T10:19:00,sdl,17.95
2022-08-04T10:20:00,sdl,18.17
2022-08-04T10:21:00,sdl,17.96
2022-08-04T10:22:00,sdl,18.07
2022-08-04T10:23:00,sdl,17.84
2022-08-04T10:24:00,sdl,17.94
2022-08-04T10:25:00,sdl,18.37
2022-08-04T10:26:00,sdl,21.69
2022-08-04T10:27:00,sdl,20.55
2022-08-04T10:28:00,sdl,20.41
2022-08-04T10:29:00,sdl,20.43
2022-08-04T10:30:00,sdl,20.49
2022-08-04T10:31:00,sdl,20.09
2022-08-04T10:32:00,sdl,23.76
2022-08-04T10:33:00,sdl,24.11
2022-08-04T10:34:00,sdl,24.29
2022-08-04T10:35:00,sdl,23.76
2022-08-04T10:36:00,sdl,23.91
2022-08-04T10:37:00,sdl,24.09
2022-08-04T10:38:00,sdl,24.23
2022-08-04T10:39:00,sdl,24.02
2022-08-04T10:40:00,sdl,24.11
2022-08-04T10:41:00,sdl,23.85
2022-08-04T10:42:00,sdl,24.06
2022-08-04T10:43:00,sdl,23.78
2022-08-04T10:44:00,sdl,23.98
2022-08-04T10:45:00,sdl,24.66
2022-08-04T10:46:00,sdl,23.67
2022-08-04T10:47:00,sdl,24.12
2022-08-04T10:48:00,sdl,24.25
2022-08-04T10:49:00,sdl,23.95
2022-08-04T10:50:00,sdl,23.99
2022-08-04T10:51:00,sdl,24.07
2022-08-04T10:52:00,sdl,21.50
2022-08-04T10:53:00,sdl,21.40
2022-08-04T10:54:00,sdl,21.93
2022-08-04T10:55:00,sdl,21.48
2022-08-04T10:56:00,sdl,21.77
2022-08-04T10:57:00,sdl,21.64
2022-08-04T10:58:00,sdl,21.45
2022-08-04T10:59:00,sdl,21.44
2022-08-04T11:00:00,sdl,22.03
2022-08-04T11:01:00,sdl,22.11
2022-08-04T11:02:00,sdl,22.11
2022-08-04T11:03:00,sdl,21.79
2022-08-04T11:04:00,sdl,21.58
2022-08-04T11:05:00,sdl,22.75
2022-08-04T11:06:00,sdl,24.04
2022-08-04T11:07:00,sdl,24.43
2022-08-04T11:08:00,sdl,24.28
2022-08-04T11:09:00,sdl,24.57
2022-08-04T11:10:00,sdl,24.74
2022-08-04T11:11:00,sdl,24.48
2022-08-04T11:12:00,sdl,24.71
2022-08-04T11:13:00,sdl,24.85
2022-08-04T11:14:00,sdl,24.41
2022-08-04T11:15:00,sdl,24.40
2022-08-04T11:16:00,sdl,24.28
2022-08-04T11:17:00,sdl,23.95
2022-08-04T11:18:00,sdl,24.15
2022-08-04T11:19:00,sdl,24.49
2022-08-04T11:20:00,sdl,23.74
2022-08-04T11:21:00,sdl,21.50
2022-08-04T11:22:00,sdl,21.60
2022-08-04T11:23:00,sdl,21.56
2022-08-04T11:24:00,sdl,21.49
2022-08-04T11:25:00,sdl,22.36
2022-08-04T11:26:00,sdl,21.78
2022-08-04T11:27:00,sdl,22.02
2022-08-04T11:28:00,sdl,21.41
2022-08-04T11:29:00,sdl,22.03
2022-08-04T11:30:00,sdl,21.59
2022-08-04T11:31:00,sdl,21.12
2022-08-04T11:32:00,sdl,21.76
2022-08-04T11:33:00,sdl,21.62
2022-08-04T11:34:00,sdl,21.69
2022-08-04T11:35:00,sdl,21.69
2022-08-04T11:36:00,sdl,21.73
2022-08-04T11:37:00,sdl,21.83
2022-08-04T11:38:00,sdl,21.80
2022-08-04T11:39:00,sdl,21.79
2022-08-04T11:40:00,sdl,21.92
2022-08-04T11:41:00,sdl,21.63
2022-08-04T11:42:00,sdl,21.56
2022-08-04T11:43:00,sdl,21.81
2022-08-04T11:44:00,sdl,21.96
2022-08-04T11:45:00,sdl,21.79
2022-08-04T11:46:00,sdl,24.00
2022-08-04T11:47:00,sdl,23.77
2022-08-04T11:48:00,sdl,23.83
2022-08-04T11:49:00,sdl,23.86
2022-08-04T11:50:00,sdl,24.01
2022-08-04T11:51:00,sdl,23.72
2022-08-04T11:52:00,sdl,23.31
2022-08-04T11:53:00,sdl,24.20
2022-08-04T11:54:00,sdl,24.44
2022-08-04T11:55:00,sdl,24.06
2022-08-04T11:56:00,sdl,24.08
2022-08-04T11:57:00,sdl,24.07
2022-08-04T11:58:00,sdl,24.20
2022-08-04T11:59:00,sdl,23.77
2022-08-04T12:00:00,sdl,22.80
2022-08-04T12:01:00,sdl,22.89
2022-08-04T12:02:00,sdl,23.83
2022-08-04T12:03:00,sdl,23.60
2022-08-04T12:04:00,sdl,22.48
2022-08-04T12:05:00,sdl,21.16
2022-08-04T12:06:00,sdl,21.38
2022-08-04T12:07:00,sdl,21.50
2022-08-04T12:08:00,sdl,21.42
2022-08-04T12:09:00,sdl,21.24
2022-08-04T12:10:00,sdl,21.54
2022-08-04T12:11:00,sdl,19.23
2022-08-04T12:12:00,sdl,19.34
2022-08-04T12:13:00,sdl,19.32
2022-08-04T12:14:00,sdl,19.32
2022-08-04T12:15:00,sdl,18.46
2022-08-04T12:16:00,sdl,18.29
2022-08-04T12:17:00,sdl,18.29
2022-08-04T12:18:00,sdl,18.18
2022-08-04T12:19:00,sdl,18.37
2022-08-04T12:20:00,sdl,18.79
2022-08-04T12:21:00,sdl,19.34
2022-08-04T12:22:00,sdl,19.60
2022-08-04T12:23:00,sdl,19.83
2022-08-04T12:24:00,sdl,19.74
2022-08-04T12:25:00,sdl,20.85
2022-08-04T12:26:00,sdl,20.00
2022-08-04T12:27:00,sdl,21.01
2022-08-04T12:28:00,sdl,22.52
2022-08-04T12:29:00,sdl,21.30
2022-08-04T12:30:00,sdl,21.93
2022-08-04T12:31:00,sdl,22.48
2022-08-04T12:32:00,sdl,22.11
2022-08-04T12:33:00,sdl,21.88
2022-08-04T12:34:00,sdl,22.30
2022-08-04T12:35:00,sdl,21.51
2022-08-04T12:36:00,sdl,21.61
2022-08-04T12:37:00,sdl,21.38
2022-08-04T12:38:00,sdl,20.98
2022-08-04T12:39:00,sdl,20.88
2022-08-04T12:40:00,sdl,19.93
2022-08-04T12:41:00,sdl,19.84
2022-08-04T12:42:00,sdl,19.74
2022-08-04T12:43:00,sdl,19.91
2022-08-04T12:44:00,sdl,20.14
2022-08-04T12:45:00,sdl,19.15
2022-08-04T12:46:00,sdl,19.29
2022-08-04T12:47:00,sdl,19.58
2022-08-04T12:48:00,sdl,19.69
2022-08-04T12:49:00,sdl,19.75
2022-08-04T12:50:00,sdl,19.68
2022-08-04T12:51:00,sdl,19.54
2022-08-04T12:52:00,sdl,20.04
2022-08-04T12:53:00,sdl,19.81
2022-08-04T12:54:00,sdl,20.43
2022-08-04T12:55:00,sdl,19.93
2022-08-04T12:56:00,sdl,20.62
2022-08-04T12:57:00,sdl,20.08
2022-08-04T12:58:00,sdl,19.96
2022-08-04T12:59:00,sdl,20.02
2022-08-04T13:00:00,sdl,21.16
2022-08-04T13:01:00,sdl,21.17
2022-08-04T13:02:00,sdl,20.70
2022-08-04T13:03:00,sdl,22.45
2022-08-04T13:04:00,sdl,21.08
2022-08-04T13:05:00,sdl,20.77
2022-08-04T13:06:00,sdl,21.14
2022-08-04T13:07:00,sdl,22.23
2022-08-04T13:08:00,sdl,22.09
2022-08-04T13:09:00,sdl,22.35
2022-08-04T13:10:00,sdl,22.07
2022-08-04T13:11:00,sdl,22.43
2022-08-04T13:12:00,sdl,22.50
2022-08-04T13:13:00,sdl,22.49
2022-08-04T13:14:00,sdl,22.84
2022-08-04T13:15:00,sdl,22.24
2022-08-04T13:16:00,sdl,22.52
2022-08-04T13:17:00,sdl,23.32
2022-08-04T13:18:00,sdl,21.36
2022-08-04T13:19:00,sdl,21.54
2022-08-04T13:20:00,sdl,20.19
2022-08-04T13:21:00,sdl,18.81
2022-08-04T13:22:00,sdl,18.32
2022-08-04T13:23:00,sdl,18.52
2022-08-04T13:24:00,sdl,18.19